User: anonymous
Location: Smithers
(54.7670°N, 127.1670°W)
Time: 00:31:23
(UTC-07:00)
Language:

ERBS - Orbit

View from above orbital plane
View from above orbital plane
View from above satellite
View from above satellite

Ground track
Ground track

The orbit data is extracted from the following two-line orbital elements,

1 15354U 84108B   14242.72114660  .00007464  00000-0  27106-3 0  5658
2 15354 057.0127 180.0490 0015341 357.3269 002.7695 15.29229299641025
Epoch (UTC): 30 August 2014 17:18:27
Eccentricity: 0.0015341
inclination: 57.0127°
perigee height: 467 km
apogee height: 488 km
right ascension of ascending node: 180.0490°
argument of perigee: 357.3269°
revolutions per day: 15.29229299
mean anomaly at epoch: 2.7695°
orbit number at epoch: 64102

The dashed part of the orbit path shows where the satellite is in the earth's shadow,  

DLR